Regional Weather Roundup
Issued by NWS Charleston, SC

Current Version | Previous Version | Text Only | Print | Product List | Glossary Off
Versions: 1 2 3 4 5 6 7 8 9 10 11 12 13 14 15 16 17 18 19 20 21 22 23 24 25 26 27 28 29 30 31 32 33 34 35 36 37 38 39 40 41 42 43 44 45 46 47 48 49 50

000
ASUS42 KCHS 242312
RWRCHS

REGIONAL WEATHER ROUNDUP
NATIONAL WEATHER SERVICE CHARLESTON SC
700 PM EDT SAT JUN 24 2017

NOTE: "FAIR" INDICATES FEW OR NO CLOUDS BELOW 12,000 FEET WITH NO
SIGNIFICANT WEATHER AND/OR OBSTRUCTIONS TO VISIBILITY.

NOT ALL STATIONS ARE QUALITY CONTROLLED. USE DATA WITH CAUTION...
ESPECIALLY DEWPOINT OBSERVATIONS.

SCZ027-030-031-034>040-042>050-250000-
...SOUTHEAST SOUTH CAROLINA...

CITY           SKY/WX    TMP DP  RH WIND       PRES   REMARKS
N CHARLESTON   MOSUNNY   87  74  64 S16       29.98S HX  95
WATERFRONT PRK   N/A     85  77  76 SW15      29.97R HX  95
JOHNS ISLAND   CLOUDY    86  77  74 SW13G20   29.99S HX  97
PINOPOLIS        N/A     90  73  58 SW13      29.90R HX  98
MONCKS CORNER  FAIR      82  68  61 W7        29.98R
SUMMERVILLE    MOCLDY    82  70  65 NW9       29.99R
BEAUFORT MCAS  MOSUNNY   91  79  67 MISG      29.98S HX 107
BEAUFORT ARPT  FAIR      86  77  74 S10       29.98S HX  97
HILTON HEAD IS SUNNY     88  79  74 S15       30.01R HX 102
WALTERBORO     PTCLDY    82  73  74 NW8       29.99S
ALLENDALE      FAIR      79  73  83 CALM      29.98F

...SOUTHERN MIDLANDS AND PEE DEE...

CITY           SKY/WX    TMP DP  RH WIND       PRES   REMARKS
GEORGETOWN     FAIR      82  77  83 SW13G18   29.98R HX  91
KINGSTREE      LGT RAIN  75  72  88 SW6       29.97R
ORANGEBURG     CLOUDY    77  75  93 SW7       30.00R
BARNWELL       FAIR      75  75 100 CALM      29.99F
AIKEN          FAIR      73  72  94 SW9       30.04R
MANNING        RAIN      75  75 100 SW5       29.99R
COLUMBIA       CLOUDY    78  74  87 W6        29.98R
SUMTER         DRIZZLE   76  73  91 W7        29.97R
FLORENCE       CLOUDY    81  74  79 W8        29.97R
MYRTLE BEACH   MOSUNNY   84  77  79 S17G24    29.96R HX  94
N MYRTLE BEACH SUNNY     82  76  81 SW20G28   29.96R

$$

GAZ063-065-086>088-099>101-113>116-118-119-134>141-150-250000-
...SOUTHEAST GEORGIA...

CITY           SKY/WX    TMP DP  RH WIND       PRES   REMARKS
SAVANNAH ARPT  MOSUNNY   93  68  43 W7        29.99S HX  97
HUNTER AAF     SUNNY     93  70  46 W3        29.97R HX  99
FORT STEWART   SUNNY     92  70  47 SW7       29.96F HX  98
STATESBORO     CLOUDY    82  74  75 NW7       29.99F
SYLVANIA       CLOUDY    82  76  82 W5        30.00F
CLAXTON        FAIR      85  71  62 W7        29.99F HX  90

...CSRA...CENTRAL AND FAR SOUTHEAST GEORGIA...

CITY           SKY/WX    TMP DP  RH WIND       PRES   REMARKS
THOMSON        CLOUDY    78  75  90 W5        30.04F
AUGUSTA-BUSH   CLOUDY    78  75  90 W3        29.99S
AUGUSTA-DANIEL CLOUDY    78  72  81 S5        30.00F
SWAINSBORO     CLOUDY    73  73 100 CALM      30.01F
VIDALIA        MOSUNNY   84  75  74 N5        30.01F HX  92
EASTMAN        CLOUDY    85  66  52 W5        30.03F
HAZLEHURST       N/A     90  70  51 SW3       29.99S HX  95
ALMA           SUNNY     92  70  48 SW7       30.00S HX  97
WAYCROSS       SUNNY     95  75  51 W6        30.00S HX 106
JESUP          FAIR      93  64  38 W6        30.00S HX  95
BAXLEY         FAIR      91  73  55 W6        29.99S HX 100
BRUNSWICK      MOSUNNY   90  79  70 SE12      30.01R HX 105
SAINT SIMONS   SUNNY     86  77  74 S12       30.01R HX  97

$$

SCZ027-028-034-036>038-045-046-048>050-GAZ119-141-250000-
...LAKE AND SUPPLEMENTAL COASTAL OBSERVATIONS...

STATION/POSITION TIME  TEMP    WIND        PRES    WAVE   SWELL
                       AIR SEA DIR/SP/G            HT/PER HT/PER/DIR
                 (UTC) (F)     (DEG/KT/KT) (MB)    (FT/S) (FT/S/D)
WINYAH BAY       2145   87     200/ 15     1014.0
LAKE MURRAY      2220   78     250/  7/  9 1014.2S
ACE BASIN NERRS  NOT AVBL
FORT PULASKI     2248   85 85  200/  7/ 11 1016.2R
SAPELO ISLAND    2200   89     160/ 10     1016.0

$$

ANZ835-935-AMZ111-154-330-350-352-354-370-450-454-472-250000-
...C-MAN AND BUOY OBSERVATIONS...

STATION/POSITION TIME  TEMP    WIND        PRES    WAVE   SWELL
                       AIR SEA DIR/SP/G            HT/PER HT/PER/DIR
                 (UTC) (F)     (DEG/KT/KT) (MB)    (FT/S) (FT/S/D)
BUOY 41004       2250   81 81  200/ 17/ 21 1015.6R   4/ 6   2/140/ 9
BUOY 41008       2150   82 83  160/ 14/ 16 1015.8    3/ 8   2/110/ 8
FOLLY BEACH CMAN 2200   83     200/ 15/ 19 1016.2F
CAPERS NEARSHORE 2208   87 83  220/ 17/ 23 1014.9F
FRIPP NEARSHORE  2208   84 84  200/ 16/ 19 1015.1F


STATION/POSITION TIME  TEMP    WIND        PRES    WAVE   SWELL
                       AIR SEA DIR/SP/G            HT/PER HT/PER/DIR
                 (UTC) (F)     (DEG/KT/KT) (MB)    (FT/S) (FT/S/D)
5E ST. MARYS GA  2200      81                N/A     3/ 9
FRYING PAN BUOY  2250   81 81  200/ 21/ 25 1014.6R   5/ 6   2/170/ 9
BUOY 41025       2250   81 80  230/ 19/ 23 1013.8R   6/ 7
CAPE LOOKOUT NC  2200   81     220/ 16/ 21 1013.4F
BUOY 41002       2250   81 81  200/ 14/ 17 1018.6R   4/ 6   2/100/ 8
BUOY 41010       2250   83 84  170/ 12/ 14 1018.5S   4/ 8   3/130/ 8
ST AUGUSTINE FL  2300   80 80  170/ 18/ 20 1016.9R


$$



USA.gov is the U.S. government's official web portal to all federal, state and local government web resources and services.